Location: Nairn
(57.5833°N, 3.8667°W)
Time: 21:26:29
(UTC+00:00)

Tiros 1 - Pass Details

Date: 30 November 2020
Orbit: 630 x 663 km, 48.4° (Epoch: 22 January)

Event Time Altitude Azimuth Distance (km) Brightness Sun altitude
Rises 17:16:46 0° 243° (WSW) 2,992 12.7 -12.2°
Reaches altitude 10° 17:19:23 10° 231° (SW) 2,078 11.0 -12.5°
Maximum altitude 17:23:24 27° 175° (S) 1,266 8.8 -13.0°
Drops below altitude 10° 17:27:23 10° 118° (ESE) 2,066 9.3 -13.5°
Enters shadow 17:27:30 10° 117° (ESE) 2,104 9.4 -13.5°
Sets 17:29:59 0° 106° (ESE) 2,972 - -13.8°
